[[{"header":{"parameterUnit":"m.s-1","parameterCategory":1,"la1":30.2991,"la2":30.254,"lo1":-89.0895,"lo2":-89.0444,"dy":0.0017,"dx":0.0017,"nx":28,"ny":28,"refTime":"2025-05-31T03:00:00:Z","depth":0,"parameterNumber":2,"parameterNumberName":"U-component_of_WINDS"},"data":[0,0,0,0,0,0,0,0,0,0,0,0,0,0,0,0,0,0,0,0,0,0,0,0,0,0,0,0,0,0,0,0,0,0,0,0,0,0,0,0,0,0,0,0,0,0,0,0,0,0,0,0,0,0,0,0,0,0,-0.5047,-0.5046,0,-0.4951,-0.4949,-0.4948,-0.4855,-0.4854,-0.4853,-0.4852,-0.4753,-0.4751,-0.475,0,0,0,0,0,0,0,0,0,0,0,0,0,-0.5152,-0.515,-0.5047,-0.5046,-0.5045,-0.4951,-0.4949,-0.4948,-0.4855,-0.4854,-0.4853,-0.4851,-0.4753,-0.4752,-0.475,0,0,0,0,0,0,0,0,0,0,0,0,0,-0.5086,-0.515,-0.5048,-0.4987,-0.4981,-0.4951,-0.4949,-0.4948,-0.4856,-0.4854,-0.4852,-0.4851,-0.4754,-0.4752,-0.475,-0.4771,0,0,-0.4743,-0.4742,0,0,0,0,0,0,0,0,-0.509,-0.5082,-0.4997,-0.4991,-0.4984,-0.4913,-0.495,-0.4889,-0.4856,-0.4903,-0.4852,-0.485,-0.4808,-0.4801,-0.4787,-0.4767,-0.4762,-0.4742,-0.4741,-0.474,-0.4739,0,0,0,0,0,0,0,-0.5095,-0.5086,-0.5009,-0.4996,-0.4988,-0.4965,-0.4954,-0.4938,-0.4867,-0.4899,-0.4892,-0.4882,-0.4804,-0.4789,-0.4784,-0.4761,-0.4742,-0.474,-0.4739,-0.4738,-0.4755,-0.4757,0,0,0,0,0,0,-0.5108,-0.509,-0.5012,-0.5006,-0.5034,-0.4965,-0.4952,-0.4938,-0.4867,-0.4854,-0.4884,-0.4878,-0.4794,-0.4786,-0.478,-0.4802,-0.474,-0.4738,-0.4737,-0.4753,-0.4755,-0.4757,0,0,0,0,0,0,-0.5111,-0.5102,-0.5016,-0.5046,-0.5033,-0.4965,-0.495,-0.4937,-0.4922,-0.4855,-0.4842,-0.4882,-0.4792,-0.4783,-0.4774,-0.4797,-0.4737,-0.4735,-0.4751,-0.4754,-0.4756,-0.4845,0,0,0,0,0,0,-0.5114,-0.5104,-0.5111,-0.5047,-0.5032,-0.5012,-0.4951,-0.4936,-0.4918,-0.491,-0.485,-0.4838,-0.479,-0.4778,-0.4772,-0.4793,-0.4733,-0.4749,-0.4752,-0.4756,-0.484,-0.4851,-0.486,0,0,0,0,0,-0.5118,-0.514,-0.5112,-0.5103,-0.504,-0.5014,-0.5005,-0.495,-0.4921,-0.4928,-0.4885,-0.484,-0.4795,-0.4778,-0.477,-0.4791,-0.4747,-0.4751,-0.4755,-0.4836,-0.4849,-0.486,0,0,0,0,0,0,-0.5208,-0.513,-0.5099,-0.51,-0.5064,-0.4998,-0.5005,-0.4965,-0.4937,-0.493,-0.4862,-0.485,-0.4849,-0.4818,-0.4801,-0.4809,-0.4765,-0.4768,-0.4829,-0.484,-0.485,-0.4858,-0.4731,0,0,0,0,0,-0.5228,-0.5213,-0.5146,-0.5153,-0.5137,-0.5075,-0.5061,-0.5021,-0.4982,-0.4966,-0.4922,-0.4885,-0.4863,-0.485,-0.4825,-0.4835,-0.4821,-0.4845,-0.4855,-0.4863,-0.4867,-0.4871,-0.4881,-0.4771,-0.4771,-0.4771,0,0,-0.5269,-0.5225,-0.5219,-0.517,-0.5138,-0.5124,-0.5063,-0.505,-0.504,-0.4964,-0.4954,-0.492,-0.4875,-0.4876,-0.4874,-0.485,-0.4894,-0.4868,-0.4876,-0.4875,-0.4876,-0.4887,-0.4896,-0.4774,-0.4773,-0.4773,0,0,-0.5337,-0.5302,-0.5305,-0.5274,-0.5226,-0.5184,-0.5185,-0.5125,-0.51,-0.5088,-0.5032,-0.5018,-0.4981,-0.4951,-0.4931,-0.4989,-0.4947,-0.4983,-0.5035,-0.504,-0.5048,-0.5056,-0.5078,-0.5086,-0.4986,-0.4986,-0.4986,0,-0.5394,-0.5371,-0.5311,-0.5303,-0.5284,-0.5215,-0.5218,-0.519,-0.5137,-0.5125,-0.5099,-0.5052,-0.5016,-0.501,-0.5024,-0.501,-0.501,-0.499,-0.5052,-0.5059,-0.5065,-0.5085,-0.5093,-0.4991,-0.4991,-0.499,-0.499,0,-0.5445,-0.543,-0.5438,-0.5389,-0.537,-0.5367,-0.5307,-0.5296,-0.5258,-0.5219,-0.5209,-0.5164,-0.513,-0.5125,-0.5087,-0.5113,-0.5101,-0.5064,-0.5019,-0.5081,-0.5099,-0.5106,-0.4998,-0.4996,-0.4995,-0.4994,0,0,-0.5567,-0.5485,-0.5489,-0.5466,-0.5408,-0.5396,-0.539,-0.5357,-0.5349,-0.5314,-0.5309,-0.5279,-0.5246,-0.5223,-0.5182,-0.5186,-0.5236,-0.5149,-0.5147,-0.5168,-0.5264,-0.5293,-0.5303,-0.5208,-0.5209,-0.521,-0.5268,0,-0.5626,-0.5613,-0.5559,-0.5561,-0.5547,-0.5482,-0.5477,-0.5442,-0.5405,-0.5388,-0.5348,-0.5329,-0.5285,-0.5271,-0.5272,-0.523,-0.5255,-0.5225,-0.5203,-0.5203,-0.5218,-0.5312,-0.5342,-0.5399,-0.5275,-0.5276,-0.5277,0,-0.5694,-0.5664,-0.5666,-0.5609,-0.5602,-0.5598,-0.5564,-0.5548,-0.5507,-0.548,-0.5456,-0.541,-0.5401,-0.5358,-0.5346,-0.5327,-0.5314,-0.5293,-0.5293,-0.529,-0.5245,-0.5313,-0.5416,-0.5425,-0.5287,-0.5286,-0.5285,0,-0.5785,-0.5745,-0.5741,-0.5724,-0.5657,-0.5657,-0.5629,-0.5586,-0.557,-0.554,-0.5529,-0.5498,-0.5482,-0.5459,-0.5407,-0.538,-0.5401,-0.5353,-0.5379,-0.5381,-0.5388,-0.5388,-0.5492,-0.5378,-0.5377,-0.5377,-0.5377,0,-0.5857,-0.5861,-0.5782,-0.5779,-0.5782,-0.572,-0.5724,-0.569,-0.5652,-0.5643,-0.5584,-0.5576,-0.5506,-0.549,-0.5449,-0.5446,-0.5438,-0.5417,-0.5407,-0.5423,-0.5427,-0.5415,-0.5411,-0.5379,-0.5379,-0.5379,-0.5378,0,-0.596,-0.5907,-0.5898,-0.5836,-0.5821,-0.5826,-0.5773,-0.5768,-0.5728,-0.5717,-0.5711,-0.5649,-0.5628,-0.5572,-0.5536,-0.5508,-0.5518,-0.5496,-0.5532,-0.5525,-0.5555,-0.5554,-0.5657,-0.5668,-0.5545,-0.5547,-0.5548,0,-0.6011,-0.6012,-0.5951,-0.594,-0.5915,-0.5899,-0.5882,-0.5821,-0.5806,-0.576,-0.5762,-0.5735,-0.5712,-0.5681,-0.5633,-0.5605,-0.5584,-0.5622,-0.558,-0.5597,-0.5587,-0.5588,-0.5588,-0.5632,-0.5634,-0.5635,-0.5636,0,-0.6107,-0.6081,-0.6059,-0.6029,-0.6011,-0.5984,-0.5954,-0.5948,-0.588,-0.5866,-0.5844,-0.5826,-0.579,-0.5765,-0.573,-0.5702,-0.5659,-0.565,-0.5654,-0.5673,-0.5694,-0.5685,-0.5559,-0.5648,-0.5647,-0.5646,-0.5645,-0.5645,-0.6186,-0.6185,-0.6142,-0.612,-0.6091,-0.6064,-0.6058,-0.6017,-0.5998,-0.5964,-0.5929,-0.5911,-0.587,-0.5819,-0.5793,-0.5779,-0.5756,-0.5762,-0.5764,-0.5767,-0.5776,-0.5695,-0.5772,-0.5771,-0.5771,-0.5771,-0.577,0,-0.6281,-0.625,-0.623,-0.619,-0.6174,-0.6133,-0.6098,-0.6087,-0.6072,-0.6037,-0.6015,-0.599,-0.5966,-0.5917,-0.5888,-0.5886,-0.5866,-0.5881,-0.5882,-0.5876,-0.5797,-0.5796,-0.5898,-0.5898,-0.5898,-0.5898,-0.5898,-0.5898,-0.6328,-0.6325,-0.6293,-0.6275,-0.6244,-0.6226,-0.621,-0.6185,-0.6157,-0.6132,-0.6112,-0.608,-0.6039,-0.6008,-0.5984,-0.597,-0.5964,-0.5986,-0.5966,-0.5893,-0.5881,-0.587,-0.5869,-0.5985,-0.5985,-0.6046,-0.6047,-0.6047]},{"header":{"parameterUnit":"m.s-1","parameterCategory":1,"la1":30.2991,"la2":30.254,"lo1":-89.0895,"lo2":-89.0444,"dy":0.0017,"dx":0.0017,"nx":28,"ny":28,"refTime":"2025-05-31T03:00:00:Z","depth":0,"parameterNumber":3,"parameterNumberName":"V-component_of_WINDS"},"data":[0,0,0,0,0,0,0,0,0,0,0,0,0,0,0,0,0,0,0,0,0,0,0,0,0,0,0,0,0,0,0,0,0,0,0,0,0,0,0,0,0,0,0,0,0,0,0,0,0,0,0,0,0,0,0,0,0,0,-0.5449,-0.5449,0,-0.5443,-0.5443,-0.5443,-0.5452,-0.5452,-0.5453,-0.5453,-0.5446,-0.5445,-0.5445,0,0,0,0,0,0,0,0,0,0,0,0,0,-0.5469,-0.5468,-0.5449,-0.5449,-0.5449,-0.5443,-0.5443,-0.5443,-0.5452,-0.5452,-0.5453,-0.5453,-0.5446,-0.5445,-0.5445,0,0,0,0,0,0,0,0,0,0,0,0,0,-0.5461,-0.5468,-0.5449,-0.5453,-0.5453,-0.5443,-0.5443,-0.5443,-0.5452,-0.5452,-0.5453,-0.5453,-0.5446,-0.5445,-0.5445,-0.543,0,0,-0.5442,-0.5442,0,0,0,0,0,0,0,0,-0.5462,-0.546,-0.5452,-0.5452,-0.5453,-0.5449,-0.5447,-0.5438,-0.5452,-0.5452,-0.5453,-0.5454,-0.5446,-0.5446,-0.5443,-0.543,-0.5429,-0.5442,-0.5442,-0.5441,-0.5441,0,0,0,0,0,0,0,-0.5462,-0.5461,-0.5446,-0.5452,-0.5452,-0.5455,-0.5454,-0.5445,-0.5447,-0.5452,-0.5453,-0.5452,-0.5447,-0.5444,-0.5443,-0.5429,-0.5442,-0.5442,-0.5441,-0.5441,-0.5406,-0.5405,0,0,0,0,0,0,-0.5462,-0.5461,-0.5447,-0.5446,-0.5458,-0.5454,-0.5453,-0.5449,-0.5447,-0.5447,-0.5452,-0.5453,-0.5445,-0.5444,-0.5443,-0.5427,-0.5441,-0.5441,-0.544,-0.5406,-0.5406,-0.5405,0,0,0,0,0,0,-0.5463,-0.5461,-0.5447,-0.5454,-0.5452,-0.5453,-0.5449,-0.5449,-0.5447,-0.5446,-0.5446,-0.5449,-0.5445,-0.5444,-0.5434,-0.5427,-0.544,-0.544,-0.5407,-0.5406,-0.5405,-0.5395,0,0,0,0,0,0,-0.5463,-0.5461,-0.5455,-0.5454,-0.5452,-0.5438,-0.5448,-0.5449,-0.5445,-0.5447,-0.5444,-0.5444,-0.5446,-0.5435,-0.5433,-0.5426,-0.5439,-0.5407,-0.5406,-0.5406,-0.5396,-0.5394,-0.5392,0,0,0,0,0,-0.5464,-0.5452,-0.5455,-0.5453,-0.5445,-0.5437,-0.5436,-0.5439,-0.5445,-0.5439,-0.544,-0.5444,-0.5428,-0.5434,-0.5432,-0.5425,-0.5408,-0.5407,-0.5406,-0.5397,-0.5394,-0.5392,0,0,0,0,0,0,-0.5452,-0.5452,-0.5455,-0.5442,-0.544,-0.5439,-0.5432,-0.5436,-0.5432,-0.5433,-0.5436,-0.5435,-0.5425,-0.5423,-0.543,-0.5412,-0.5419,-0.5417,-0.5413,-0.5411,-0.5409,-0.541,-0.5439,0,0,0,0,0,-0.5448,-0.5442,-0.5442,-0.5431,-0.5429,-0.5431,-0.5428,-0.543,-0.5428,-0.5426,-0.5426,-0.5423,-0.5418,-0.5414,-0.5409,-0.5396,-0.5396,-0.539,-0.5388,-0.5387,-0.5386,-0.538,-0.5378,-0.5402,-0.5402,-0.5402,0,0,-0.5439,-0.5438,-0.5434,-0.5428,-0.5427,-0.5421,-0.543,-0.5423,-0.5419,-0.5425,-0.5416,-0.5416,-0.5413,-0.5402,-0.5397,-0.54,-0.5379,-0.5385,-0.5384,-0.5384,-0.5379,-0.5377,-0.5375,-0.5401,-0.5401,-0.5401,0,0,-0.5421,-0.5419,-0.541,-0.5409,-0.5407,-0.5408,-0.5406,-0.5405,-0.5405,-0.5396,-0.5402,-0.5397,-0.5387,-0.5385,-0.5383,-0.5366,-0.537,-0.5364,-0.5355,-0.535,-0.5348,-0.5346,-0.5342,-0.534,-0.5363,-0.5363,-0.5363,0,-0.541,-0.5402,-0.5405,-0.5399,-0.5396,-0.5403,-0.5395,-0.5393,-0.5389,-0.5387,-0.5392,-0.5381,-0.5379,-0.5369,-0.5365,-0.5362,-0.5361,-0.5365,-0.5348,-0.5346,-0.5345,-0.5341,-0.5339,-0.5362,-0.5362,-0.5362,-0.5362,0,-0.539,-0.5384,-0.5377,-0.5375,-0.5372,-0.5364,-0.5367,-0.5363,-0.5366,-0.5367,-0.5359,-0.5357,-0.5353,-0.535,-0.5352,-0.534,-0.5343,-0.5347,-0.5355,-0.5342,-0.5338,-0.5336,-0.5361,-0.5361,-0.5362,-0.5362,0,0,-0.5364,-0.5364,-0.5362,-0.5361,-0.536,-0.5356,-0.5349,-0.5345,-0.5343,-0.534,-0.5335,-0.5327,-0.5332,-0.533,-0.5332,-0.5327,-0.5316,-0.5332,-0.5332,-0.5331,-0.5304,-0.5301,-0.5299,-0.5318,-0.5318,-0.5318,-0.5305,0,-0.5347,-0.5336,-0.5339,-0.5328,-0.5324,-0.533,-0.5325,-0.5323,-0.5324,-0.5321,-0.5322,-0.5317,-0.5323,-0.5322,-0.5317,-0.5318,-0.5311,-0.5319,-0.5314,-0.5314,-0.5316,-0.5297,-0.5294,-0.5282,-0.5303,-0.5303,-0.5302,0,-0.5326,-0.5324,-0.5312,-0.5313,-0.5312,-0.5306,-0.5304,-0.53,-0.53,-0.5301,-0.5299,-0.5302,-0.5296,-0.5304,-0.5296,-0.5301,-0.53,-0.53,-0.53,-0.53,-0.5308,-0.5298,-0.5278,-0.5276,-0.53,-0.53,-0.53,0,-0.531,-0.5304,-0.5297,-0.5296,-0.5297,-0.5293,-0.5293,-0.5293,-0.5291,-0.5289,-0.5288,-0.5285,-0.5283,-0.5281,-0.5284,-0.5289,-0.5276,-0.5283,-0.5278,-0.5278,-0.5275,-0.5275,-0.5255,-0.5272,-0.5272,-0.5272,-0.5272,0,-0.5291,-0.5285,-0.529,-0.5286,-0.5279,-0.5283,-0.5276,-0.5276,-0.5276,-0.5273,-0.5278,-0.5274,-0.5278,-0.5274,-0.5277,-0.5271,-0.527,-0.5271,-0.5272,-0.5271,-0.5271,-0.5271,-0.5272,-0.5272,-0.5272,-0.5272,-0.5272,0,-0.5273,-0.5276,-0.5269,-0.5271,-0.5271,-0.5266,-0.5267,-0.5264,-0.5265,-0.5261,-0.526,-0.5263,-0.5259,-0.5262,-0.5258,-0.526,-0.5252,-0.5254,-0.5253,-0.5254,-0.5248,-0.5249,-0.5228,-0.5226,-0.5243,-0.5243,-0.5243,0,-0.5261,-0.5257,-0.5258,-0.5257,-0.5257,-0.5253,-0.5252,-0.5256,-0.5254,-0.5254,-0.525,-0.5248,-0.5246,-0.524,-0.5242,-0.524,-0.5242,-0.5234,-0.5241,-0.5241,-0.5243,-0.5244,-0.5244,-0.5233,-0.5233,-0.5233,-0.5233,0,-0.5241,-0.5244,-0.5242,-0.524,-0.5239,-0.5238,-0.5237,-0.5235,-0.524,-0.5237,-0.5235,-0.5233,-0.523,-0.5228,-0.5226,-0.5226,-0.5231,-0.5231,-0.5229,-0.5229,-0.5229,-0.523,-0.525,-0.5231,-0.5231,-0.5231,-0.5231,-0.5232,-0.5227,-0.5224,-0.5225,-0.5223,-0.5223,-0.5223,-0.522,-0.5222,-0.522,-0.5218,-0.522,-0.5217,-0.5218,-0.5216,-0.5216,-0.5213,-0.5216,-0.5214,-0.5214,-0.5214,-0.5213,-0.5229,-0.5213,-0.5213,-0.5213,-0.5213,-0.5213,0,-0.5209,-0.521,-0.5208,-0.5208,-0.5206,-0.5211,-0.5211,-0.5209,-0.5206,-0.5207,-0.5205,-0.5202,-0.52,-0.5202,-0.52,-0.5198,-0.52,-0.5198,-0.5198,-0.5199,-0.521,-0.5212,-0.5196,-0.5196,-0.5196,-0.5196,-0.5196,-0.5196,-0.5199,-0.5195,-0.5197,-0.5192,-0.5194,-0.5191,-0.5191,-0.5191,-0.5191,-0.5188,-0.5187,-0.5188,-0.5189,-0.5188,-0.5186,-0.5187,-0.5187,-0.5184,-0.5185,-0.5196,-0.5198,-0.5199,-0.5201,-0.5183,-0.5183,-0.5174,-0.5174,-0.5174]}]]